TimeEDT,TemperatureF,Dew PointF,Humidity,Sea Level PressureIn,VisibilityMPH,Wind Direction,Wind SpeedMPH,Gust SpeedMPH,PrecipitationIn,Events,Conditions,WindDirDegrees,DateUTC
12:53 AM,43.0,37.9,82,29.92,10.0,NNE,8.1,-,N/A,,Overcast,20,2011-10-27 04:53:00
1:53 AM,43.0,37.0,80,29.93,10.0,North,6.9,-,N/A,,Overcast,10,2011-10-27 05:53:00
2:53 AM,43.0,36.0,76,29.93,10.0,North,5.8,-,N/A,,Overcast,350,2011-10-27 06:53:00
3:53 AM,41.0,35.6,81,29.90,10.0,NNW,4.6,-,N/A,,Partly Cloudy,340,2011-10-27 07:53:00
4:53 AM,41.0,37.0,86,29.90,10.0,North,6.9,-,N/A,,Clear,360,2011-10-27 08:53:00
5:53 AM,41.0,37.0,86,29.92,10.0,NW,4.6,-,N/A,,Mostly Cloudy,320,2011-10-27 09:53:00
6:53 AM,41.0,37.0,86,29.93,10.0,NNW,5.8,-,N/A,,Overcast,340,2011-10-27 10:53:00
7:53 AM,39.9,37.0,89,29.92,10.0,NNW,5.8,-,N/A,,Overcast,330,2011-10-27 11:53:00
8:53 AM,39.9,37.0,89,29.93,10.0,North,8.1,-,N/A,,Overcast,350,2011-10-27 12:53:00
9:53 AM,42.1,37.0,82,29.96,10.0,North,6.9,-,N/A,,Overcast,350,2011-10-27 13:53:00
10:53 AM,43.0,37.0,80,29.95,10.0,North,9.2,-,N/A,,Overcast,350,2011-10-27 14:53:00
11:53 AM,45.0,37.0,74,29.96,10.0,NNW,6.9,-,N/A,,Overcast,340,2011-10-27 15:53:00
12:53 PM,45.0,36.0,71,29.97,10.0,North,6.9,-,N/A,,Overcast,360,2011-10-27 16:53:00
1:36 PM,44.6,37.4,76,29.95,10.0,NNE,5.8,-,0.00,Rain,Light Rain,20,2011-10-27 17:36:00
1:53 PM,45.0,36.0,71,29.96,10.0,North,9.2,-,0.00,,Mostly Cloudy,10,2011-10-27 17:53:00
2:53 PM,45.0,36.0,71,29.97,6.0,North,8.1,-,0.00,Rain,Light Rain,350,2011-10-27 18:53:00
3:53 PM,46.9,35.1,63,29.99,10.0,NNE,9.2,-,0.00,,Mostly Cloudy,20,2011-10-27 19:53:00
4:53 PM,45.0,34.0,65,30.01,10.0,NNW,3.5,-,N/A,,Overcast,340,2011-10-27 20:53:00
5:53 PM,44.1,36.0,73,30.03,10.0,NE,8.1,-,N/A,,Overcast,40,2011-10-27 21:53:00
6:53 PM,37.9,33.1,83,30.06,10.0,Calm,Calm,-,N/A,,Scattered Clouds,0,2011-10-27 22:53:00
7:53 PM,41.0,34.0,76,30.09,10.0,Calm,Calm,-,N/A,,Overcast,0,2011-10-27 23:53:00
8:53 PM,39.9,34.0,79,30.11,10.0,Calm,Calm,-,N/A,,Mostly Cloudy,0,2011-10-28 00:53:00
9:53 PM,36.0,33.1,89,30.13,10.0,Calm,Calm,-,N/A,,Clear,0,2011-10-28 01:53:00
10:53 PM,34.0,32.0,92,30.14,10.0,Calm,Calm,-,N/A,,Clear,0,2011-10-28 02:53:00
11:53 PM,34.0,32.0,92,30.15,8.0,SW,3.5,-,N/A,,Clear,230,2011-10-28 03:53:00